Location: Ailingen
(47.6833°N, 9.5000°E)
Time: 12:27:57
(UTC+00:00)

IRS-P3 - Pass Details

Date: 18 November 2025
Orbit: 810 x 816 km, 99.0° (Epoch: 11 December)

Event Time Altitude Azimuth Distance (km) Brightness Sun altitude
Rises 16:26:51 0° 144° (SE) 3,331 7.1 -7.7°
Reaches altitude 10° 16:29:16 10° 138° (SE) 2,403 6.4 -8.1°
Maximum altitude 16:34:18 46° 67° (ENE) 1,091 4.4 -8.9°
Drops below altitude 10° 16:39:22 10° 356° (N) 2,415 6.4 -9.7°
Sets 16:41:48 0° 350° (N) 3,351 7.2 -10.1°
